CST,Max TemperatureF,Mean TemperatureF,Min TemperatureF,Max Dew PointF,MeanDew PointF,Min DewpointF,Max Humidity, Mean Humidity, Min Humidity, Max Sea Level PressureIn, Mean Sea Level PressureIn, Min Sea Level PressureIn, Max VisibilityMiles, Mean VisibilityMiles, Min VisibilityMiles, Max Wind SpeedMPH, Mean Wind SpeedMPH, Max Gust SpeedMPH,PrecipitationIn, CloudCover, Events, WindDirDegrees
2013-11-1,42,37,33,37,35,32,100,90,79,29.94,29.68,29.46,10,9,5,13,9,,0.00,5,,300
2013-11-2,48,39,32,37,34,32,100,91,63,30.11,30.04,29.96,10,6,0,9,6,,0.00,4,Fog,291
2013-11-3,54,44,34,34,33,30,92,67,43,30.07,29.89,29.78,10,10,10,31,15,46,0.00,1,,143
2013-11-4,46,39,32,37,33,25,93,80,62,30.16,29.89,29.75,10,10,8,23,14,28,0.02,4,Rain,257
2013-11-5,34,31,28,24,21,18,79,66,54,30.29,30.20,30.14,10,10,10,9,6,,0.00,5,,304
2013-11-6,39,32,25,27,23,17,92,68,53,30.20,30.15,30.13,10,10,10,13,7,,0.00,4,,290
2013-11-7,37,30,24,27,24,21,100,86,51,30.29,30.22,30.17,10,7,0,12,5,,0.00,5,Fog,292
2013-11-8,41,33,25,38,28,21,97,78,53,30.19,29.84,29.58,10,10,10,21,9,31,0.01,6,,156
2013-11-9,39,36,33,37,30,25,93,78,62,30.30,29.97,29.64,10,10,6,29,18,39,0.00,8,Rain-Snow,298
2013-11-10,36,32,26,28,26,17,92,79,67,30.35,30.25,30.14,10,10,10,18,10,26,0.00,6,,261
2013-11-11,23,18,10,11,6,5,81,66,53,30.82,30.56,30.29,10,10,10,20,15,26,0.00,5,,342
2013-11-12,30,18,7,16,8,2,88,62,33,30.84,30.68,30.38,10,10,10,15,8,22,0.00,0,,226
2013-11-13,54,38,23,35,27,14,78,66,45,30.32,30.02,29.88,10,10,10,18,12,22,0.00,1,,228
2013-11-14,48,40,32,35,33,31,96,79,58,29.86,29.83,29.79,10,10,10,16,6,,0.00,1,,258
2013-11-15,53,38,24,38,31,22,100,78,45,29.84,29.73,29.53,10,8,1,21,8,30,0.00,0,,187
2013-11-16,44,40,35,43,41,34,100,97,71,29.51,29.33,29.24,10,2,0,20,11,29,0.02,7,Fog,134
2013-11-17,42,34,26,43,33,19,100,92,74,29.93,29.51,29.28,10,7,0,29,14,39,0.01,8,Fog,301
2013-11-18,30,26,21,21,18,16,85,74,61,30.27,30.14,29.89,10,10,10,29,16,36,0.00,4,,323
2013-11-19,46,34,21,32,26,18,85,69,50,30.24,29.96,29.75,10,10,10,29,16,37,0.00,0,,143
2013-11-20,48,38,28,33,30,27,93,70,50,30.08,29.89,29.75,10,9,5,17,13,28,0.00,1,Snow,182
2013-11-21,26,20,12,24,14,5,96,79,64,30.64,30.37,30.10,10,8,1,22,16,31,0.00,7,Snow,333
2013-11-22,25,15,5,14,5,-2,87,72,48,30.79,30.62,30.51,10,9,2,21,12,28,0.00,1,Snow,292
2013-11-23,12,6,1,2,0,-4,88,76,56,30.95,30.84,30.74,10,10,5,18,10,24,0.00,2,,308
2013-11-24,37,22,6,26,11,1,80,60,36,30.69,30.23,29.88,10,10,10,24,14,33,0.00,1,,192
2013-11-25,35,30,23,27,23,14,88,72,61,30.18,30.03,29.87,10,10,10,24,15,34,0.00,6,,303
2013-11-26,21,16,9,16,8,3,88,70,57,30.47,30.30,30.12,10,9,1,26,19,38,0.00,5,Snow,331
2013-11-27,21,13,5,9,6,1,88,72,52,30.46,30.25,30.07,10,10,10,18,6,22,0.00,4,,148
2013-11-28,21,16,10,14,9,5,84,68,53,30.53,30.37,30.13,10,10,7,17,9,23,0.00,4,Snow,346
2013-11-29,30,20,10,18,13,6,84,70,52,30.53,30.32,30.09,10,10,10,21,9,28,0.00,1,,151
2013-11-30,30,24,17,22,19,15,96,83,67,30.25,30.14,30.05,10,9,6,14,6,,0.00,4,,333